Weather in Pu'er

China     22°47′30″N   100°58′33″E
temp.,
°C
wind,
m/s
gust,
m/s
humid.,
%
clouds,
%
prec.,
mm/h
press.,
hPa
HPBL,
m
14 may, fri
fri1423:00+18s11700 0.0 100811
02:00+17sse11770 0.0 100814
05:00+16sse11860 0.0 100811
08:00+19s13730 0.0 1008152
11:00+26sw37400 0.0 10071856
14:00+27wsw3738100 0.0 10042116
17:00+29wsw483212 0.0 10022569
20:00+21sw115776 0.0 100516
15 may, sat
sat1523:00+19wnw01675 0.0 100811
02:00+18sw01730 0.0 100811
05:00+17s01804 0.0 100811
08:00+20w11683 0.0 1009134
11:00+27wsw37370 0.0 10081994
14:00+27wsw273738 0.0 10052080
17:00+29wsw373411 0.0 10032593
20:00+21wsw11595 0.0 100616
16 may, sun
sun1623:00+21sse116020 0.0 100811
02:00+18s00705 0.0 100711
05:00+18w00715 0.0 100711
08:00+21wsw01630 0.0 1009117
11:00+28wsw35360 0.0 10081769
14:00+32wsw35255 0.0 10053025
17:00+32wsw45227 0.0 10023363
20:00+25wsw263713 0.0 1005158
17 may, mon
mon1723:00+20nnw115090 0.0 100811
02:00+19nnw005599 0.0 100811
05:00+18e11665 0.0 100811
08:00+22ssw01565 0.0 1010100
11:00+29sw2532100 0.0 10092017
14:00+33wsw252495 0.0 10053417
17:00+32wsw3625100 0.0 10023193
20:00+25ene004296 0.0 100411
18 may, tue
tue1823:00+21ese1154100 0.0 100711
02:00+21ese115899 0.0 100714
05:00+20sse116680 0.1 100711
08:00+23s1258100 0.1 1008149
11:00+30sw26335 0.0 10071986
14:00+34sw3725100 0.0 10023739
17:00+28ssw2636100 0.0 1001557
20:00+25s115192 0.0 100311